FW8882 Weather Reports


time (UTC)temp
C
wind
direction
speed
KPH
gust
KPH
rain 1hr
cm
rain 24hr
cm
rain mn
cm
humidity
%
barometer
mb
20260507020947 7 347 0.0 0.0 0.00 0.84 0.84 84 1012.6
20260507020444 7 344 0.0 0.0 0.00 0.84 0.84 82 1012.3
20260507015941 7 344 0.0 0.0 0.00 0.84 0.84 84 1012.3
20260507015439 7 344 0.0 0.0 0.00 0.84 0.84 84 1012.5
20260507014936 7 344 0.0 0.0 0.00 0.84 0.84 82 1012.5
20260507014433 7 345 0.0 0.0 0.00 0.84 0.84 81 1012.6
20260507013929 8 344 0.0 0.0 0.00 0.84 0.84 80 1012.3
20260507013426 8 345 0.0 0.0 0.00 0.84 0.84 76 1012.2
20260507012923 8 344 0.0 0.0 0.00 0.84 0.84 72 1012.6
20260507012420 9 342 0.0 0.0 0.00 0.84 0.84 71 1012.3
20260507011917 9 342 0.0 0.0 0.00 0.84 0.84 69 1012.4
20260507011414 10 345 0.0 0.0 0.00 0.84 0.84 69 1012.2
20260507010913 10 345 0.0 0.0 0.00 0.84 0.84 70 1012.4
20260507010409 10 347 0.0 1.6 0.00 0.84 0.84 67 1012.1
20260507005907 10 333 1.6 1.6 0.00 0.84 0.84 66 1012.2
20260507005403 10 344 0.0 0.0 0.00 0.84 0.84 66 1011.9
20260507004900 10 345 0.0 0.0 0.00 0.84 0.84 68 1011.8
20260507004357 10 341 0.0 1.6 0.00 0.84 0.84 68 1011.9
20260507003854 10 345 0.0 1.6 0.00 0.84 0.84 67 1011.9
20260507003349 10 344 0.0 0.0 0.00 0.84 0.84 66 1011.8
20260507002845 11 346 0.0 0.0 0.00 0.84 0.84 67 1011.6
20260507002341 11 342 0.0 0.0 0.00 0.84 0.84 65 1011.6
20260507001838 11 342 0.0 1.6 0.00 0.84 0.84 65 1011.7
20260507001335 11 339 0.0 0.0 0.00 0.84 0.84 66 1011.7
20260507000831 11 342 0.0 1.6 0.00 0.84 0.84 64 1011.6
20260507000328 11 333 1.6 3.2 0.00 0.84 0.84 62 1011.3
20260506235824 11 347 0.0 3.2 0.00 0.84 0.84 61 1011.5
20260506235320 11 344 3.2 4.8 0.00 0.84 0.84 61 1011.7
20260506234817 11 344 1.6 3.2 0.00 0.84 0.84 64 1011.6
20260506234315 11 345 0.0 1.6 0.00 0.84 0.84 63 1011.4
20260506233812 11 323 0.0 3.2 0.00 0.84 0.84 63 1011.3
20260506233308 11 338 1.6 1.6 0.00 0.84 0.84 63 1011.5
20260506232805 11 345 1.6 3.2 0.00 0.84 0.84 61 1011.3
20260506232300 11 344 3.2 3.2 0.00 0.84 0.84 60 1011.4
20260506231757 12 341 1.6 1.6 0.00 0.84 0.84 59 1011.8
20260506231255 12 334 0.0 3.2 0.00 0.84 0.84 61 1011.6
20260506230752 12 346 0.0 1.6 0.00 0.84 0.84 63 1011.8
20260506230249 12 346 0.0 3.2 0.00 0.84 0.84 64 1011.9
20260506225745 12 338 0.0 1.6 0.00 0.84 0.84 62 1011.7
20260506225243 12 335 0.0 1.6 0.00 0.84 0.84 62 1011.8
20260506224738 12 281 1.6 1.6 0.00 0.84 0.84 59 1011.9
20260506224236 12 345 0.0 1.6 0.00 0.84 0.84 61 1012.0
20260506223732 12 336 0.0 1.6 0.00 0.84 0.84 60 1011.8
20260506223228 12 342 0.0 1.6 0.00 0.84 0.84 58 1011.7
20260506222725 12 345 0.0 1.6 0.00 0.84 0.84 63 1011.8
20260506222220 12 306 4.8 4.8 0.00 0.84 0.84 58 1011.9
20260506221719 12 316 1.6 1.6 0.00 0.84 0.84 61 1012.0
20260506221217 12 346 1.6 3.2 0.00 0.84 0.84 60 1011.8
20260506220714 12 298 3.2 4.8 0.00 0.84 0.84 58 1011.5
20260506220208 12 337 0.0 1.6 0.00 0.84 0.84 61 1011.5
20260506215705 12 337 0.0 1.6 0.00 0.84 0.84 62 1011.6
20260506215201 12 337 1.6 3.2 0.00 0.84 0.84 60 1011.4
20260506214658 12 314 3.2 4.8 0.00 0.84 0.84 59 1011.2
20260506214155 12 255 3.2 4.8 0.00 0.84 0.84 61 1011.3
20260506213653 12 282 1.6 4.8 0.00 0.84 0.84 60 1011.2
20260506213150 12 284 1.6 1.6 0.00 0.84 0.84 64 1011.2
20260506212647 12 338 1.6 1.6 0.00 0.84 0.84 66 1011.1
20260506212142 12 341 1.6 3.2 0.00 0.84 0.84 62 1011.2
20260506211638 12 345 0.0 1.6 0.00 0.84 0.84 64 1011.0
20260506211135 12 344 3.2 8.0 0.00 0.84 0.84 62 1011.4
20260506210632 12 345 1.6 4.8 0.00 0.84 0.84 61 1011.0
20260506210128 12 348 1.6 3.2 0.00 0.84 0.84 62 1010.9
20260506205625 12 347 4.8 4.8 0.00 0.84 0.84 58 1011.1
20260506205120 12 332 1.6 3.2 0.00 0.84 0.84 58 1011.3
20260506204618 12 336 1.6 8.0 0.00 0.84 0.84 60 1011.2
20260506204115 12 358 1.6 1.6 0.00 0.84 0.84 62 1011.1
20260506203613 12 342 0.0 1.6 0.00 0.84 0.84 59 1010.8
20260506203109 12 340 3.2 3.2 0.00 0.84 0.84 62 1010.9
20260506202608 12 342 1.6 4.8 0.00 0.84 0.84 59 1010.7
20260506202103 13 301 4.8 4.8 0.00 0.84 0.84 57 1010.8
20260506201601 13 348 6.4 8.0 0.00 0.84 0.84 59 1010.8
20260506201057 13 5 4.8 8.0 0.00 0.84 0.84 62 1010.8
20260506200554 12 306 1.6 4.8 0.00 0.84 0.84 60 1010.8
20260506200051 12 32 4.8 4.8 0.00 0.84 0.84 64 1011.0
20260506195547 12 336 0.0 4.8 0.00 0.84 0.84 60 1010.8
20260506195044 12 327 3.2 8.0 0.00 0.84 0.84 61 1011.0
20260506194542 12 333 3.2 8.0 0.00 0.84 0.84 64 1011.1
20260506194038 12 348 3.2 4.8 0.00 0.84 0.84 63 1010.9
20260506193535 12 325 1.6 8.0 0.00 0.84 0.84 63 1010.9
20260506193032 12 355 0.0 3.2 0.00 0.84 0.84 63 1011.0
20260506192529 12 346 0.0 3.2 0.00 0.84 0.84 64 1011.1
20260506192025 12 293 4.8 8.0 0.00 0.84 0.84 61 1010.9
20260506191522 12 348 0.0 4.8 0.00 0.84 0.84 65 1011.0
20260506191018 12 295 3.2 4.8 0.00 0.84 0.84 61 1010.9
20260506190515 13 47 4.8 8.0 0.00 0.84 0.84 61 1010.9
20260506190012 13 327 1.6 4.8 0.00 0.84 0.84 61 1010.4
20260506185509 13 8 3.2 11.3 0.00 0.84 0.84 61 1010.5
20260506185006 13 356 6.4 11.3 0.00 0.84 0.84 61 1010.4
20260506184503 13 344 3.2 9.7 0.00 0.84 0.84 64 1010.5
20260506184000 13 329 4.8 11.3 0.00 0.84 0.84 59 1010.8
20260506183456 13 349 1.6 9.7 0.00 0.84 0.84 61 1010.9
20260506182953 14 31 3.2 3.2 0.00 0.84 0.84 59 1010.7
20260506182450 13 324 0.0 3.2 0.00 0.84 0.84 61 1010.9
20260506181947 13 28 3.2 8.0 0.00 0.84 0.84 65 1010.8
20260506181445 13 328 1.6 4.8 0.00 0.84 0.84 59 1011.1
20260506180942 13 316 1.6 4.8 0.00 0.84 0.84 62 1010.9
20260506180438 13 14 1.6 4.8 0.00 0.84 0.84 60 1011.1
20260506175935 13 32 1.6 9.7 0.00 0.84 0.84 65 1010.9
20260506175432 13 4 3.2 3.2 0.00 0.84 0.84 63 1010.8
20260506174928 13 330 1.6 4.8 0.00 0.84 0.84 61 1010.9
20260506174426 13 315 1.6 3.2 0.00 0.84 0.84 60 1010.8
20260506173923 13 333 3.2 4.8 0.00 0.84 0.84 63 1011.0
20260506173420 13 341 0.0 3.2 0.00 0.84 0.84 62 1010.8
20260506172917 13 13 6.4 11.3 0.00 0.84 0.84 61 1010.9
20260506172414 13 306 1.6 4.8 0.00 0.84 0.84 65 1011.0
20260506171911 13 2 4.8 4.8 0.00 0.84 0.84 59 1010.9
20260506171408 13 3 3.2 3.2 0.00 0.84 0.84 62 1010.7
20260506170906 13 326 3.2 8.0 0.00 0.84 0.84 66 1010.8
20260506170401 13 324 1.6 9.7 0.00 0.84 0.84 67 1010.3
20260506165855 13 21 3.2 8.0 0.00 0.84 0.84 67 1010.7
20260506165353 12 342 4.8 4.8 0.00 0.84 0.84 63 1010.9
20260506164849 13 301 3.2 11.3 0.00 0.84 0.84 64 1010.8
20260506164345 13 341 1.6 8.0 0.00 0.84 0.84 66 1010.9
20260506163843 12 19 4.8 8.0 0.00 0.84 0.84 66 1011.1
20260506163337 12 348 1.6 3.2 0.00 0.84 0.84 69 1010.8
20260506162833 12 329 0.0 4.8 0.00 0.84 0.84 69 1010.8
20260506162331 12 347 1.6 11.3 0.00 0.84 0.84 68 1011.0
20260506161823 12 340 1.6 8.0 0.00 0.84 0.84 65 1011.2
20260506161320 12 350 0.0 3.2 0.00 0.84 0.84 70 1011.1
20260506160817 12 338 3.2 8.0 0.00 0.84 0.84 72 1010.9
20260506160314 12 321 1.6 4.8 0.00 0.84 0.84 70 1010.9
20260506155812 12 308 0.0 3.2 0.00 0.84 0.84 68 1010.5
20260506155309 12 301 1.6 4.8 0.00 0.84 0.84 69 1010.3
20260506153421 11 349 1.6 4.8 0.00 0.84 0.84 74 1010.3
20260506152919 11 346 3.2 4.8 0.00 0.84 0.84 73 1010.2
20260506152415 11 326 1.6 3.2 0.00 0.84 0.84 76 1010.4
20260506151915 11 29 3.2 8.0 0.00 0.84 0.84 72 1010.0
20260506151411 11 342 3.2 3.2 0.00 0.84 0.84 73 1010.3
20260506150908 11 0 3.2 8.0 0.00 0.84 0.84 75 1010.0
20260506150404 10 30 1.6 11.3 0.00 0.84 0.84 72 1010.0
20260506145901 10 349 4.8 8.0 0.00 0.84 0.84 73 1010.0
20260506145357 10 337 0.0 3.2 0.00 0.84 0.84 72 1010.0
20260506144855 10 274 1.6 8.0 0.00 0.84 0.84 73 1010.0
20260506144351 10 4 1.6 3.2 0.00 0.84 0.84 75 1010.0
20260506143850 10 343 0.0 3.2 0.00 0.84 0.84 75 1009.9
20260506143346 10 337 4.8 8.0 0.00 0.84 0.84 75 1009.9
20260506142845 10 333 1.6 3.2 0.00 0.84 0.84 80 1009.9
20260506142343 10 13 4.8 8.0 0.00 0.84 0.84 76 1009.7
20260506141841 10 314 4.8 4.8 0.00 0.84 0.84 77 1009.9
20260506141338 9 317 1.6 11.3 0.00 0.84 0.84 78 1009.4
20260506140836 9 342 1.6 3.2 0.00 0.84 0.84 80 1009.6
20260506140333 9 308 3.2 3.2 0.00 0.84 0.84 82 1009.4
20260506135830 8 336 0.0 4.8 0.00 0.84 0.84 85 1009.5
20260506135326 8 345 1.6 4.8 0.00 0.84 0.84 84 1009.5
20260506134823 8 35 3.2 8.0 0.00 0.84 0.84 84 1009.1
20260506134319 8 342 1.6 4.8 0.00 0.84 0.84 87 1009.0
20260506133817 8 342 1.6 3.2 0.00 0.84 0.84 88 1009.2
20260506133313 8 293 4.8 8.0 0.00 0.84 0.84 88 1009.2
20260506132810 7 317 3.2 8.0 0.00 0.84 0.84 90 1009.2
20260506132307 7 348 1.6 9.7 0.00 0.84 0.84 92 1009.1
20260506131805 7 306 3.2 9.7 0.00 0.84 0.84 93 1009.0
20260506131301 7 350 4.8 4.8 0.00 0.84 0.84 94 1009.2
20260506130758 7 348 1.6 4.8 0.00 0.84 0.84 95 1009.0
20260506130254 6 341 1.6 1.6 0.00 0.84 0.84 95 1009.0
20260506125753 6 339 0.0 3.2 0.00 0.84 0.84 95 1008.9
20260506125250 6 339 0.0 1.6 0.00 0.84 0.84 95 1008.8
20260506124749 6 21 3.2 4.8 0.00 0.84 0.84 95 1008.8
20260506124246 6 331 0.0 4.8 0.00 0.84 0.84 96 1008.8
20260506123743 6 3 1.6 3.2 0.00 0.84 0.84 96 1008.8
20260506123242 6 345 1.6 4.8 0.00 0.84 0.84 96 1008.7
20260506122738 6 348 1.6 1.6 0.00 0.84 0.84 97 1008.5
20260506122235 6 329 3.2 8.0 0.00 0.84 0.84 97 1008.4
20260506121734 6 333 3.2 3.2 0.00 0.84 0.84 97 1008.5
20260506121230 6 339 0.0 1.6 0.00 0.84 0.84 97 1008.3
20260506120727 6 341 0.0 3.2 0.00 0.84 0.84 98 1008.1
20260506120225 6 33 1.6 3.2 0.00 0.84 0.84 98 1008.0
20260506115723 6 308 0.0 0.0 0.00 0.84 0.84 98 1008.1
20260506115221 6 341 0.0 3.2 0.00 0.84 0.84 98 1008.2
20260506114718 6 346 1.6 1.6 0.00 0.84 0.84 98 1008.3
20260506114216 6 343 0.0 0.0 0.00 0.84 0.84 98 1008.2
20260506113714 6 342 0.0 1.6 0.00 0.84 0.84 98 1007.9
20260506113211 6 358 1.6 8.0 0.00 0.84 0.84 98 1007.9
20260506112707 6 338 1.6 3.2 0.00 0.84 0.84 99 1007.5
20260506112205 6 344 0.0 4.8 0.00 0.84 0.84 99 1007.5
20260506111702 6 342 0.0 8.0 0.00 0.84 0.84 99 1006.9
20260506111200 6 343 4.8 4.8 0.00 0.84 0.84 99 1007.0
20260506110657 6 343 1.6 3.2 0.00 0.84 0.84 99 1006.7
20260506110155 6 359 4.8 8.0 0.00 0.84 0.84 99 1006.6
20260506105651 6 344 0.0 1.6 0.00 0.84 0.84 99 1006.6
20260506105148 6 343 1.6 4.8 0.00 0.84 0.84 99 1007.1
20260506104646 6 359 1.6 1.6 0.00 0.84 0.84 99 1007.5
20260506104143 6 339 1.6 4.8 0.00 0.84 0.84 99 1007.1
20260506103640 6 337 1.6 4.8 0.00 0.84 0.84 99 1006.5
20260506103137 6 351 0.0 1.6 0.00 0.84 0.84 99 1006.5
20260506102635 6 336 0.0 8.0 0.00 0.84 0.84 99 1006.7
20260506102133 7 358 3.2 8.0 0.00 0.84 0.84 99 1006.6
20260506101629 7 354 3.2 3.2 0.00 0.84 0.84 99 1006.8
20260506101126 7 337 0.0 4.8 0.00 0.84 0.84 99 1007.0
20260506100625 7 333 0.0 1.6 0.00 0.84 0.84 99 1006.7
20260506100122 7 0 1.6 3.2 0.00 0.84 0.84 99 1006.3
20260506095621 7 9 3.2 4.8 0.00 0.84 0.84 99 1006.3
20260506095117 7 3 0.0 1.6 0.00 0.84 0.84 99 1005.8
20260506094615 7 353 0.0 0.0 0.00 0.84 0.84 99 1005.8
20260506094112 7 339 0.0 0.0 0.00 0.84 0.84 99 1005.9
20260506093610 7 6 0.0 1.6 0.00 0.84 0.84 99 1005.8
20260506093107 7 340 3.2 4.8 0.00 0.84 0.84 99 1005.5
20260506092605 7 342 1.6 3.2 0.00 0.84 0.84 99 1005.7
20260506092102 7 350 0.0 3.2 0.00 0.84 0.84 99 1005.6
20260506091600 7 13 4.8 4.8 0.00 0.84 0.84 99 1005.8
20260506091057 7 334 3.2 8.0 0.13 0.84 0.84 99 1005.7
20260506090555 7 335 0.0 3.2 0.13 0.84 0.84 99 1005.9
20260506090051 6 317 0.0 4.8 0.00 0.81 0.81 99 1005.7
20260506085548 6 338 4.8 9.7 0.18 0.81 0.81 99 1005.8
20260506085044 6 339 1.6 8.0 0.18 0.81 0.81 99 1005.6
20260506084541 6 343 1.6 8.0 0.13 0.79 0.79 99 1005.6
20260506084037 6 0 6.4 8.0 0.30 0.79 0.79 99 1005.9
20260506083535 6 0 1.6 4.8 0.30 0.76 0.76 99 1006.1
20260506083032 6 350 4.8 9.7 0.13 0.74 0.74 99 1005.9
20260506082529 6 3 4.8 8.0 0.18 0.71 0.71 99 1005.9
20260506082024 7 346 4.8 12.9 0.30 0.71 0.71 99 1005.8
20260506081523 7 341 1.6 3.2 0.13 0.69 0.69 99 1005.8
20260506081020 7 248 4.8 4.8 0.18 0.66 0.66 99 1005.7
20260506080517 7 347 3.2 12.9 0.30 0.66 0.66 99 1005.7
20260506073501 7 341 3.2 11.3 0.00 0.58 0.58 99 1005.1
20260506072958 7 334 8.0 12.9 0.00 0.58 0.58 99 1005.3
20260506072455 7 349 1.6 9.7 0.18 0.58 0.58 99 1005.1
20260506071953 7 4 4.8 8.0 0.18 0.58 0.58 99 1005.0
20260506071451 7 321 6.4 9.7 0.13 0.56 0.56 99 1005.3
20260506070947 7 337 1.6 4.8 0.13 0.56 0.56 99 1005.5
20260506070444 7 346 3.2 4.8 0.30 0.53 0.53 99 1005.5
20260506062422 7 348 1.6 9.7 0.18 0.33 0.33 99 1005.4
20260506061918 7 340 3.2 11.3 0.30 0.33 0.33 99 1005.4
20260506061415 7 329 3.2 11.3 0.30 0.30 0.30 99 1005.2
20260506060912 7 348 1.6 9.7 0.36 0.28 0.28 99 1005.4
20260506060410 7 357 0.0 1.6 0.30 0.25 0.25 99 1005.5
20260506051342 7 249 1.6 4.8 0.00 0.13 0.13 99 1005.5
20260506050840 8 347 1.6 3.2 0.13 0.13 0.13 99 1005.6
20260506050337 8 347 0.0 4.8 0.13 0.13 0.13 99 1005.6
20260506044827 8 331 1.6 4.8 0.43 0.08 0.08 99 1006.0
20260506044325 8 324 1.6 3.2 0.13 0.03 0.03 99 1006.1
20260506043822 8 306 3.2 3.2 0.00 0.00 0.00 99 1006.1
20260506043320 8 341 0.0 3.2 0.00 0.00 0.00 99 1005.9
20260506042818 8 342 4.8 4.8 0.00 0.00 0.00 99 1005.6
20260506042316 8 354 1.6 3.2 0.00 0.00 0.00 99 1005.4
20260506041815 8 14 3.2 8.0 0.00 0.00 0.00 99 1005.6
20260506041311 8 335 4.8 9.7 0.00 0.00 0.00 99 1005.6
20260506040809 8 9 0.0 3.2 0.00 0.00 0.00 99 1005.8
20260506040306 8 347 3.2 4.8 0.00 0.00 0.00 99 1005.6
20260506035802 8 25 1.6 3.2 0.00 2.31 2.31 99 1005.6
20260506035259 8 29 0.0 4.8 0.00 2.31 2.31 99 1005.8
20260506034756 8 11 1.6 3.2 0.00 2.31 2.31 99 1005.6
20260506034254 8 346 1.6 3.2 0.00 2.31 2.31 99 1005.6
20260506033750 8 346 1.6 8.0 0.18 2.31 2.31 99 1005.9
20260506033247 8 12 1.6 4.8 0.18 2.31 2.31 99 1005.9
20260506032744 8 340 4.8 9.7 0.13 2.29 2.29 99 1005.9
20260506032241 8 327 4.8 8.0 0.30 2.29 2.29 99 1006.1
20260506031738 8 332 0.0 9.7 0.18 2.26 2.26 99 1006.2
20260506031235 9 294 6.4 9.7 0.18 2.24 2.24 99 1006.2
20260506030733 9 344 4.8 8.0 0.48 2.24 2.24 99 1006.4
20260506030231 9 329 1.6 9.7 0.43 2.21 2.21 99 1006.3
20260506025727 9 10 1.6 3.2 0.43 2.16 2.16 99 1006.6
20260506025224 9 337 3.2 4.8 0.43 2.11 2.11 99 1006.6
20260506024721 9 354 0.0 3.2 0.43 2.06 2.06 99 1006.8
20260506024217 9 42 3.2 4.8 0.48 2.03 2.03 99 1006.7
20260506023713 9 342 1.6 3.2 0.36 1.98 1.98 99 1006.7
20260506023211 9 343 4.8 12.9 0.30 1.96 1.96 99 1006.7
20260506022708 9 335 3.2 4.8 0.30 1.93 1.93 99 1006.4
20260506022205 9 352 4.8 8.0 0.30 1.91 1.91 99 1006.3
20260506021703 9 347 1.6 3.2 0.30 1.88 1.88 99 1006.2
20260506021200 10 349 1.6 8.0 0.30 1.85 1.85 99 1006.3